Weather History for KLHQ - November, 2014

Change the Weather History Date:

Monday, November 24, 2014

  Actual Average Record
Temperature  
Mean Temperature 53 °F -  
Max Temperature 64 °F 48 °F 68 °F (2001)
Min Temperature 39 °F 29 °F 1 °F (1956)
Degree Days  
Heating Degree Days 12    
Growing Degree Days 3 (Base 50)    
Moisture  
Dew Point 46 °F    
Average Humidity 70    
Maximum Humidity 87    
Minimum Humidity 52    
Precipitation  
Precipitation 0.03 in - - ()
Sea Level Pressure  
Sea Level Pressure 29.50 in    
Wind  
Wind Speed 19 mph (SW)    
Max Wind Speed 32 mph    
Max Gust Speed 47 mph    
Visibility 10 miles    
Events Rain    
Averages and records for this station are not official NWS values.
T = Trace of Precipitation, MM = Missing Value Source: NWS Daily Summary

Daily Weather History Graph

Daily Weather History Graph

Search for Another Location

Airport or City:

Trip Planner

Search our weather history database for the weather conditions in past years. The results will help you decide how hot, cold, wet, or windy it might be!

Date:

Astronomy

Nov. 24, 2014 Rise Set
Actual Time 7:25 AM EST 5:09 PM EST
Civil Twilight 6:55 AM EST 5:38 PM EST
Nautical Twilight 6:22 AM EST 6:11 PM EST
Astronomical Twilight 5:50 AM EST 6:43 PM EST
Moon 9:16 AM EST (11/24) 7:29 PM EST (11/24)
Length of Visible Light 10h 42m
Length of Day
9h 43m
Waxing Crescent, 6% of the Moon is Illuminated
Nov 24
Waxing Crescent
Nov 29
First Quarter
Dec 6
Full
Dec 14
Last Quarter
Dec 21
New

Hourly Weather History & Observations

Time (EST) Temp. Windchill Dew Point Humidity Pressure Visibility Wind Dir Wind Speed Gust Speed Precip Events Conditions
12:00 AM 59.0 °F - 53.1 °F 81% 29.35 in 10.0 mi SSE 20.7 mph 33.4 mph N/A   Overcast
12:53 AM 60.1 °F - 52.0 °F 75% 29.31 in 10.0 mi South 20.7 mph 29.9 mph N/A   Overcast
1:11 AM 60.1 °F - 53.1 °F 78% 29.32 in 10.0 mi South 25.3 mph 41.4 mph N/A   Overcast
1:53 AM 57.9 °F - 54.0 °F 87% 29.31 in 5.0 mi South 18.4 mph 24.2 mph 0.01 in Rain Light Rain
2:44 AM 59.0 °F - 55.0 °F 87% 29.34 in 10.0 mi SSW 18.4 mph 31.1 mph 0.02 in   Overcast
2:53 AM 59.0 °F - 55.0 °F 87% 29.33 in 7.0 mi SSW 17.3 mph 31.1 mph 0.02 in Rain Light Rain
3:10 AM 59.0 °F - 54.0 °F 83% 29.36 in 10.0 mi SSW 16.1 mph 32.2 mph 0.00 in   Overcast
3:53 AM 60.1 °F - 53.1 °F 78% 29.36 in 10.0 mi SSW 15.0 mph 25.3 mph 0.00 in   Overcast
4:17 AM 60.1 °F - 53.1 °F 78% 29.37 in 10.0 mi SSW 13.8 mph - N/A   Overcast
4:53 AM 60.1 °F - 54.0 °F 80% 29.37 in 9.0 mi SSW 15.0 mph 24.2 mph 0.00 in Rain Light Rain
5:09 AM 60.1 °F - 55.0 °F 83% 29.38 in 9.0 mi SSW 13.8 mph 21.9 mph 0.00 in Rain Light Rain
5:53 AM 61.0 °F - 53.1 °F 75% 29.38 in 10.0 mi SSW 11.5 mph 25.3 mph 0.00 in   Overcast
6:53 AM 61.0 °F - 53.1 °F 75% 29.36 in 10.0 mi South 13.8 mph 23.0 mph N/A   Overcast
7:53 AM 60.1 °F - 53.1 °F 78% 29.37 in 10.0 mi South 18.4 mph 25.3 mph N/A   Scattered Clouds
8:53 AM 62.1 °F - 52.0 °F 70% 29.35 in 10.0 mi South 20.7 mph 28.8 mph N/A   Partly Cloudy
9:53 AM 64.0 °F - 50.0 °F 60% 29.35 in 10.0 mi SSW 24.2 mph 34.5 mph N/A   Mostly Cloudy
10:53 AM 64.0 °F - 46.9 °F 54% 29.37 in 10.0 mi SSW 21.9 mph 41.4 mph N/A   Mostly Cloudy
11:53 AM 64.0 °F - 46.0 °F 52% 29.39 in 10.0 mi SW 23.0 mph 40.3 mph N/A   Overcast
12:53 PM 61.0 °F - 45.0 °F 56% 29.45 in 10.0 mi WSW 32.2 mph 47.2 mph N/A   Overcast
1:53 PM 57.0 °F - 42.1 °F 57% 29.52 in 10.0 mi WSW 26.5 mph 44.9 mph N/A   Overcast
2:53 PM 55.9 °F - 41.0 °F 57% 29.57 in 10.0 mi WSW 20.7 mph 36.8 mph N/A   Partly Cloudy
3:53 PM 51.1 °F - 39.0 °F 63% 29.64 in 10.0 mi WSW 18.4 mph 34.5 mph N/A   Mostly Cloudy
4:53 PM 46.9 °F - 37.0 °F 68% 29.70 in 10.0 mi West 18.4 mph 28.8 mph N/A   Mostly Cloudy
5:53 PM 45.0 °F 37.4 °F 34.0 °F 65% 29.75 in 10.0 mi WSW 18.4 mph 27.6 mph N/A   Overcast
6:53 PM 45.0 °F 37.9 °F 32.0 °F 60% 29.80 in 10.0 mi WSW 16.1 mph 26.5 mph N/A   Overcast
7:53 PM 45.0 °F 37.6 °F 30.9 °F 58% 29.82 in 10.0 mi SW 17.3 mph 24.2 mph N/A   Overcast
8:53 PM 45.0 °F 37.6 °F 32.0 °F 60% 29.85 in 10.0 mi West 17.3 mph 26.5 mph N/A   Overcast
9:53 PM 43.0 °F 36.4 °F 30.0 °F 60% 29.87 in 10.0 mi WSW 12.7 mph 20.7 mph N/A   Overcast
10:53 PM 42.1 °F 37.1 °F 30.9 °F 65% 29.88 in 10.0 mi West 8.1 mph - N/A   Overcast
11:53 PM 39.0 °F 34.8 °F 30.9 °F 73% 29.90 in 10.0 mi West 5.8 mph - N/A   Clear